AZERSPACE 1

Last updated on Tue Sep 16 2025 00:02:47 GMT+0000 (Coordinated Universal Time)

1 39079U 13006B 25258.16544194 .00000000 00000+0 00000+0 0 9992 2 39079 0.0206 146.2748 0001564 59.6341 254.0011 1.00270464 46056
UTC large
Height (km)
Speed (km/s)
/
Latitude / Longitude
Inclination (degrees)
Orbital Period (minutes)
Azimuth
Elevation
Range (km)
Doppler Factor

Next 0 passes for location: London (51.5072 / 0.1276)

Sorry there are no passes over London.